Time,TemperatureF,DewpointF,PressureIn,WindDirection,WindDirectionDegrees,WindSpeedMPH,WindSpeedGustMPH,Humidity,HourlyPrecipIn,Conditions,Clouds,dailyrainin,SoftwareType,DateUTC
2013-05-17 00:08:00,72.0,63.6,29.97,South,180,7.6,-999.0,75,0.00,,,0.06,open2300 v1.10,2013-05-17 05:08:00,
2013-05-17 00:13:00,72.1,63.8,29.97,SSE,157,0.0,-999.0,75,0.00,,,0.06,open2300 v1.10,2013-05-17 05:13:00,
2013-05-17 00:18:00,72.0,63.6,29.97,West,270,0.0,-999.0,75,0.00,,,0.06,open2300 v1.10,2013-05-17 05:18:00,
2013-05-17 00:28:00,72.1,64.2,29.97,South,180,0.0,-999.0,76,0.00,,,0.06,open2300 v1.10,2013-05-17 05:28:00,
2013-05-17 00:33:00,72.1,64.2,29.97,South,180,0.0,-999.0,76,0.00,,,0.06,open2300 v1.10,2013-05-17 05:33:00,
2013-05-17 00:39:00,72.0,64.0,29.97,SE,135,0.0,-999.0,76,0.00,,,0.06,open2300 v1.10,2013-05-17 05:39:00,
2013-05-17 00:49:00,72.0,64.3,29.97,South,180,0.0,-999.0,77,0.00,,,0.06,open2300 v1.10,2013-05-17 05:49:00,
2013-05-17 00:59:00,71.8,64.2,29.97,SSW,202,2.0,-999.0,77,0.00,,,0.06,open2300 v1.10,2013-05-17 05:59:00,
2013-05-17 01:04:00,71.8,64.2,29.97,SSW,202,0.0,-999.0,77,0.00,,,0.06,open2300 v1.10,2013-05-17 06:04:00,
2013-05-17 01:13:00,71.8,64.5,29.96,SSW,202,0.0,-999.0,78,0.00,,,0.06,open2300 v1.10,2013-05-17 06:13:00,
2013-05-17 01:18:00,71.8,64.5,29.97,SSW,202,0.0,-999.0,78,0.00,,,0.06,open2300 v1.10,2013-05-17 06:18:00,
2013-05-17 01:23:00,71.8,64.5,29.96,SSW,202,0.7,-999.0,78,0.00,,,0.06,open2300 v1.10,2013-05-17 06:23:00,
2013-05-17 01:28:00,71.8,64.5,29.96,South,180,0.0,-999.0,78,0.00,,,0.06,open2300 v1.10,2013-05-17 06:28:00,
2013-05-17 01:33:00,71.8,64.5,29.97,SSW,202,0.9,-999.0,78,0.00,,,0.06,open2300 v1.10,2013-05-17 06:33:00,
2013-05-17 01:38:00,71.8,64.5,29.97,SW,225,8.1,-999.0,78,0.00,,,0.06,open2300 v1.10,2013-05-17 06:38:00,
2013-05-17 01:43:00,71.8,64.5,29.96,South,180,2.7,-999.0,78,0.00,,,0.06,open2300 v1.10,2013-05-17 06:43:00,
2013-05-17 01:48:00,71.8,64.5,29.96,SW,225,0.0,-999.0,78,0.00,,,0.06,open2300 v1.10,2013-05-17 06:48:00,
2013-05-17 01:54:00,71.8,64.5,29.96,SSW,202,0.0,-999.0,78,0.00,,,0.06,open2300 v1.10,2013-05-17 06:54:00,
2013-05-17 01:59:00,71.8,64.5,29.96,South,180,0.0,-999.0,78,0.00,,,0.06,open2300 v1.10,2013-05-17 06:59:00,
2013-05-17 02:08:00,71.8,64.5,29.96,South,180,0.0,-999.0,78,0.00,,,0.06,open2300 v1.10,2013-05-17 07:08:00,
2013-05-17 02:13:00,71.4,64.6,29.96,WSW,247,0.0,-999.0,79,0.00,,,0.06,open2300 v1.10,2013-05-17 07:13:00,
2013-05-17 02:18:00,71.4,64.6,29.96,South,180,0.9,-999.0,79,0.00,,,0.06,open2300 v1.10,2013-05-17 07:18:00,
2013-05-17 02:23:00,71.4,64.2,29.96,West,270,0.0,-999.0,78,0.00,,,0.06,open2300 v1.10,2013-05-17 07:23:00,
2013-05-17 02:28:00,71.4,64.2,29.96,WNW,292,0.0,-999.0,78,0.00,,,0.06,open2300 v1.10,2013-05-17 07:28:00,
2013-05-17 02:39:00,71.4,64.6,29.96,South,180,5.8,-999.0,79,0.00,,,0.06,open2300 v1.10,2013-05-17 07:39:00,
2013-05-17 02:48:00,71.4,64.6,29.96,SW,225,4.2,-999.0,79,0.00,,,0.06,open2300 v1.10,2013-05-17 07:48:00,
2013-05-17 02:54:00,71.4,64.6,29.96,West,270,0.0,-999.0,79,0.00,,,0.06,open2300 v1.10,2013-05-17 07:54:00,
2013-05-17 02:59:00,71.4,64.6,29.96,SSW,202,0.0,-999.0,79,0.00,,,0.06,open2300 v1.10,2013-05-17 07:59:00,
2013-05-17 03:08:00,71.4,64.9,29.96,SW,225,0.0,-999.0,80,0.00,,,0.06,open2300 v1.10,2013-05-17 08:08:00,
2013-05-17 03:13:00,71.4,64.9,29.95,WNW,292,0.0,-999.0,80,0.00,,,0.06,open2300 v1.10,2013-05-17 08:13:00,
2013-05-17 03:18:00,71.4,64.9,29.95,West,270,0.0,-999.0,80,0.00,,,0.06,open2300 v1.10,2013-05-17 08:18:00,
2013-05-17 03:23:00,71.4,64.9,29.95,South,180,0.0,-999.0,80,0.00,,,0.06,open2300 v1.10,2013-05-17 08:23:00,
2013-05-17 03:28:00,71.4,64.9,29.95,WSW,247,6.0,-999.0,80,0.00,,,0.06,open2300 v1.10,2013-05-17 08:28:00,
2013-05-17 03:33:00,71.8,65.3,29.95,SW,225,0.9,-999.0,80,0.00,,,0.06,open2300 v1.10,2013-05-17 08:33:00,
2013-05-17 03:38:00,71.8,65.3,29.96,SE,135,0.0,-999.0,80,0.00,,,0.06,open2300 v1.10,2013-05-17 08:38:00,
2013-05-17 03:43:00,71.6,65.1,29.96,SW,225,0.0,-999.0,80,0.00,,,0.06,open2300 v1.10,2013-05-17 08:43:00,
2013-05-17 03:48:00,71.6,65.1,29.96,WNW,292,0.0,-999.0,80,0.00,,,0.06,open2300 v1.10,2013-05-17 08:48:00,
2013-05-17 03:53:00,71.4,65.3,29.96,SW,225,0.0,-999.0,81,0.00,,,0.06,open2300 v1.10,2013-05-17 08:53:00,
2013-05-17 03:59:00,71.4,65.3,29.96,SW,225,2.7,-999.0,81,0.00,,,0.06,open2300 v1.10,2013-05-17 08:59:00,
2013-05-17 04:08:00,71.4,65.3,29.96,WSW,247,0.0,-999.0,81,0.00,,,0.06,open2300 v1.10,2013-05-17 09:08:00,
2013-05-17 04:13:00,71.6,65.5,29.96,West,270,0.0,-999.0,81,0.00,,,0.06,open2300 v1.10,2013-05-17 09:13:00,
2013-05-17 04:18:00,71.8,65.6,29.96,NW,315,0.0,-999.0,81,0.00,,,0.06,open2300 v1.10,2013-05-17 09:18:00,
2013-05-17 04:23:00,71.8,65.3,29.96,WNW,292,2.2,-999.0,80,0.00,,,0.06,open2300 v1.10,2013-05-17 09:23:00,
2013-05-17 04:28:00,72.0,65.5,29.97,West,270,0.0,-999.0,80,0.00,,,0.06,open2300 v1.10,2013-05-17 09:28:00,
2013-05-17 04:33:00,72.1,65.7,29.97,WSW,247,2.7,-999.0,80,0.00,,,0.06,open2300 v1.10,2013-05-17 09:33:00,
2013-05-17 04:43:00,72.3,65.8,29.97,West,270,0.0,-999.0,80,0.00,,,0.06,open2300 v1.10,2013-05-17 09:43:00,
2013-05-17 04:48:00,72.3,65.5,29.97,South,180,0.0,-999.0,79,0.00,,,0.06,open2300 v1.10,2013-05-17 09:48:00,
2013-05-17 04:54:00,72.5,65.6,29.97,West,270,7.8,-999.0,79,0.00,,,0.06,open2300 v1.10,2013-05-17 09:54:00,
2013-05-17 04:59:00,72.7,65.8,29.97,WSW,247,0.0,-999.0,79,0.00,,,0.06,open2300 v1.10,2013-05-17 09:59:00,
2013-05-17 05:08:00,72.7,65.8,29.97,SSW,202,0.0,-999.0,79,0.00,,,0.06,open2300 v1.10,2013-05-17 10:08:00,
2013-05-17 05:13:00,72.7,65.8,29.97,South,180,0.0,-999.0,79,0.00,,,0.06,open2300 v1.10,2013-05-17 10:13:00,
2013-05-17 05:18:00,72.5,65.6,29.97,SSE,157,0.0,-999.0,79,0.00,,,0.06,open2300 v1.10,2013-05-17 10:18:00,
2013-05-17 05:23:00,72.5,66.0,29.97,SSW,202,0.0,-999.0,80,0.00,,,0.06,open2300 v1.10,2013-05-17 10:23:00,
2013-05-17 05:28:00,72.3,65.8,29.97,South,180,6.0,-999.0,80,0.00,,,0.06,open2300 v1.10,2013-05-17 10:28:00,
2013-05-17 05:33:00,72.3,65.8,29.97,SW,225,0.0,-999.0,80,0.00,,,0.06,open2300 v1.10,2013-05-17 10:33:00,
2013-05-17 05:38:00,72.3,65.8,29.96,SW,225,0.2,-999.0,80,0.00,,,0.06,open2300 v1.10,2013-05-17 10:38:00,
2013-05-17 05:48:00,72.1,65.7,29.96,WSW,247,0.0,-999.0,80,0.00,,,0.06,open2300 v1.10,2013-05-17 10:48:00,
2013-05-17 05:54:00,72.1,65.7,29.96,SSW,202,0.0,-999.0,80,0.00,,,0.06,open2300 v1.10,2013-05-17 10:54:00,
2013-05-17 05:59:00,72.1,66.0,29.97,WNW,292,0.0,-999.0,81,0.00,,,0.06,open2300 v1.10,2013-05-17 10:59:00,
2013-05-17 06:08:00,71.8,65.6,29.97,West,270,0.0,-999.0,81,0.00,,,0.06,open2300 v1.10,2013-05-17 11:08:00,
2013-05-17 06:13:00,71.8,65.6,29.97,West,270,0.0,-999.0,81,0.00,,,0.06,open2300 v1.10,2013-05-17 11:13:00,
2013-05-17 06:18:00,71.8,65.6,29.97,South,180,0.0,-999.0,81,0.00,,,0.06,open2300 v1.10,2013-05-17 11:18:00,
2013-05-17 06:23:00,71.8,65.6,29.97,NW,315,0.0,-999.0,81,0.00,,,0.06,open2300 v1.10,2013-05-17 11:23:00,
2013-05-17 06:28:00,71.4,65.6,29.98,WSW,247,0.0,-999.0,82,0.00,,,0.06,open2300 v1.10,2013-05-17 11:28:00,
2013-05-17 06:33:00,71.6,65.8,29.98,SSW,202,0.0,-999.0,82,0.00,,,0.06,open2300 v1.10,2013-05-17 11:33:00,
2013-05-17 06:38:00,71.8,66.0,29.98,SW,225,2.5,-999.0,82,0.00,,,0.06,open2300 v1.10,2013-05-17 11:38:00,
2013-05-17 06:48:00,71.8,66.0,29.98,WNW,292,0.0,-999.0,82,0.00,,,0.06,open2300 v1.10,2013-05-17 11:48:00,
2013-05-17 06:54:00,72.0,66.2,29.98,SSW,202,0.0,-999.0,82,0.00,,,0.06,open2300 v1.10,2013-05-17 11:54:00,
2013-05-17 06:59:00,72.1,66.3,29.99,South,180,0.0,-999.0,82,0.00,,,0.06,open2300 v1.10,2013-05-17 11:59:00,
2013-05-17 07:08:00,72.3,66.5,29.99,SW,225,1.3,-999.0,82,0.00,,,0.02,open2300 v1.10,2013-05-17 12:08:00,
2013-05-17 07:13:00,72.5,66.7,29.99,SSE,157,2.5,-999.0,82,0.00,,,0.02,open2300 v1.10,2013-05-17 12:13:00,
2013-05-17 07:18:00,72.7,66.9,29.99,WSW,247,5.8,-999.0,82,0.00,,,0.02,open2300 v1.10,2013-05-17 12:18:00,
2013-05-17 07:23:00,72.7,66.9,29.99,South,180,1.8,-999.0,82,0.00,,,0.02,open2300 v1.10,2013-05-17 12:23:00,
2013-05-17 07:28:00,73.0,66.9,29.99,SSW,202,0.0,-999.0,81,0.00,,,0.02,open2300 v1.10,2013-05-17 12:28:00,
2013-05-17 07:33:00,73.2,67.1,29.99,WNW,292,0.0,-999.0,81,0.00,,,0.02,open2300 v1.10,2013-05-17 12:33:00,
2013-05-17 07:38:00,73.4,67.3,29.99,SW,225,0.0,-999.0,81,0.00,,,0.02,open2300 v1.10,2013-05-17 12:38:00,
2013-05-17 07:43:00,73.6,67.1,29.99,SW,225,0.0,-999.0,80,0.00,,,0.02,open2300 v1.10,2013-05-17 12:43:00,
2013-05-17 07:48:00,73.8,67.3,29.99,NE,45,0.0,-999.0,80,0.00,,,0.02,open2300 v1.10,2013-05-17 12:48:00,
2013-05-17 07:54:00,74.1,67.6,30.00,WSW,247,0.0,-999.0,80,0.00,,,0.02,open2300 v1.10,2013-05-17 12:54:00,
2013-05-17 07:59:00,74.5,68.0,30.00,WNW,292,1.1,-999.0,80,0.00,,,0.02,open2300 v1.10,2013-05-17 12:59:00,
2013-05-17 08:08:00,74.8,68.0,30.00,WSW,247,6.5,-999.0,79,0.00,,,0.02,open2300 v1.10,2013-05-17 13:08:00,
2013-05-17 08:13:00,75.4,68.1,30.00,WSW,247,0.0,-999.0,78,0.00,,,0.02,open2300 v1.10,2013-05-17 13:13:00,
2013-05-17 08:18:00,75.7,68.0,30.01,WSW,247,0.0,-999.0,77,0.00,,,0.02,open2300 v1.10,2013-05-17 13:18:00,
2013-05-17 08:23:00,75.9,67.8,30.01,WNW,292,1.1,-999.0,76,0.00,,,0.02,open2300 v1.10,2013-05-17 13:23:00,
2013-05-17 08:28:00,76.1,68.0,30.01,WNW,292,0.0,-999.0,76,0.00,,,0.02,open2300 v1.10,2013-05-17 13:28:00,
2013-05-17 08:33:00,76.3,68.1,30.01,WNW,292,0.0,-999.0,76,0.00,,,0.02,open2300 v1.10,2013-05-17 13:33:00,
2013-05-17 08:38:00,76.6,68.1,30.01,WNW,292,8.9,-999.0,75,0.00,,,0.02,open2300 v1.10,2013-05-17 13:38:00,
2013-05-17 08:43:00,76.8,68.3,30.01,West,270,0.0,-999.0,75,0.00,,,0.02,open2300 v1.10,2013-05-17 13:43:00,
2013-05-17 08:48:00,76.8,68.3,30.02,SSW,202,0.0,-999.0,75,0.00,,,0.02,open2300 v1.10,2013-05-17 13:48:00,
2013-05-17 08:54:00,77.2,68.2,30.02,WNW,292,6.9,-999.0,74,0.00,,,0.02,open2300 v1.10,2013-05-17 13:54:00,
2013-05-17 08:59:00,77.4,68.4,30.02,NW,315,2.7,-999.0,74,0.00,,,0.02,open2300 v1.10,2013-05-17 13:59:00,
2013-05-17 09:08:00,77.5,68.2,30.02,WNW,292,6.3,-999.0,73,0.00,,,0.00,open2300 v1.10,2013-05-17 14:08:00,
2013-05-17 09:13:00,77.7,68.4,30.02,West,270,6.3,-999.0,73,0.00,,,0.00,open2300 v1.10,2013-05-17 14:13:00,
2013-05-17 09:18:00,77.9,68.5,30.02,SSW,202,1.1,-999.0,73,0.00,,,0.00,open2300 v1.10,2013-05-17 14:18:00,
2013-05-17 09:28:00,78.6,68.8,30.02,WNW,292,1.3,-999.0,72,0.00,,,0.00,open2300 v1.10,2013-05-17 14:28:00,
2013-05-17 09:33:00,78.6,68.4,30.02,SW,225,4.0,-999.0,71,0.00,,,0.00,open2300 v1.10,2013-05-17 14:33:00,
2013-05-17 09:39:00,79.0,68.8,30.02,WNW,292,4.9,-999.0,71,0.00,,,0.00,open2300 v1.10,2013-05-17 14:39:00,
2013-05-17 09:48:00,79.3,68.7,30.02,WSW,247,1.6,-999.0,70,0.00,,,0.00,open2300 v1.10,2013-05-17 14:48:00,
2013-05-17 09:54:00,79.7,69.1,30.02,WSW,247,1.3,-999.0,70,0.00,,,0.00,open2300 v1.10,2013-05-17 14:54:00,
2013-05-17 09:59:00,79.9,68.8,30.02,WSW,247,0.0,-999.0,69,0.00,,,0.00,open2300 v1.10,2013-05-17 14:59:00,
2013-05-17 10:08:00,80.4,68.9,30.02,West,270,0.0,-999.0,68,0.00,,,0.00,open2300 v1.10,2013-05-17 15:08:00,
2013-05-17 10:13:00,80.8,69.2,30.02,NW,315,5.1,-999.0,68,0.00,,,0.00,open2300 v1.10,2013-05-17 15:13:00,
2013-05-17 10:18:00,81.0,69.4,30.02,East,90,0.0,-999.0,68,0.00,,,0.00,open2300 v1.10,2013-05-17 15:18:00,
2013-05-17 10:23:00,81.0,68.9,30.02,SE,135,0.0,-999.0,67,0.00,,,0.00,open2300 v1.10,2013-05-17 15:23:00,
2013-05-17 10:28:00,81.0,68.9,30.02,West,270,0.0,-999.0,67,0.00,,,0.00,open2300 v1.10,2013-05-17 15:28:00,
2013-05-17 10:33:00,81.0,68.9,30.02,NW,315,4.0,-999.0,67,0.00,,,0.00,open2300 v1.10,2013-05-17 15:33:00,
2013-05-17 10:38:00,81.0,68.9,30.02,SW,225,6.9,-999.0,67,0.00,,,0.00,open2300 v1.10,2013-05-17 15:38:00,
2013-05-17 10:43:00,81.0,68.9,30.02,WNW,292,1.8,-999.0,67,0.00,,,0.00,open2300 v1.10,2013-05-17 15:43:00,
2013-05-17 10:49:00,81.1,69.1,30.02,WNW,292,0.0,-999.0,67,0.00,,,0.00,open2300 v1.10,2013-05-17 15:49:00,
2013-05-17 10:54:00,81.3,69.3,30.02,ESE,112,5.1,-999.0,67,0.00,,,0.00,open2300 v1.10,2013-05-17 15:54:00,
2013-05-17 10:59:00,81.5,69.4,30.02,SSW,202,0.0,-999.0,67,0.00,,,0.00,open2300 v1.10,2013-05-17 15:59:00,
2013-05-17 11:08:00,82.2,69.6,30.02,NNW,337,7.4,-999.0,66,0.00,,,0.00,open2300 v1.10,2013-05-17 16:08:00,
2013-05-17 11:13:00,82.9,69.4,30.02,West,270,0.0,-999.0,64,0.00,,,0.00,open2300 v1.10,2013-05-17 16:13:00,
2013-05-17 11:18:00,83.1,69.6,30.02,SE,135,0.0,-999.0,64,0.00,,,0.00,open2300 v1.10,2013-05-17 16:18:00,
2013-05-17 11:23:00,83.5,69.5,30.02,WNW,292,2.2,-999.0,63,0.00,,,0.00,open2300 v1.10,2013-05-17 16:23:00,
2013-05-17 11:28:00,83.5,69.5,30.02,SW,225,11.2,-999.0,63,0.00,,,0.00,open2300 v1.10,2013-05-17 16:28:00,
2013-05-17 11:33:00,83.5,69.5,30.02,South,180,0.0,-999.0,63,0.00,,,0.00,open2300 v1.10,2013-05-17 16:33:00,
2013-05-17 11:39:00,83.3,69.3,30.02,West,270,0.0,-999.0,63,0.00,,,0.00,open2300 v1.10,2013-05-17 16:39:00,
2013-05-17 11:49:00,82.9,69.0,30.02,West,270,0.7,-999.0,63,0.00,,,0.00,open2300 v1.10,2013-05-17 16:49:00,
2013-05-17 11:59:00,82.8,68.8,30.02,West,270,8.7,-999.0,63,0.00,,,0.00,open2300 v1.10,2013-05-17 16:59:00,
2013-05-17 12:08:00,82.9,69.4,30.02,North,0,0.2,-999.0,64,0.00,,,0.00,open2300 v1.10,2013-05-17 17:08:00,
2013-05-17 12:13:00,82.9,69.0,30.02,WNW,292,7.2,-999.0,63,0.00,,,0.00,open2300 v1.10,2013-05-17 17:13:00,
2013-05-17 12:18:00,82.6,68.6,30.02,West,270,3.1,-999.0,63,0.00,,,0.00,open2300 v1.10,2013-05-17 17:18:00,
2013-05-17 12:23:00,82.6,69.1,30.02,NW,315,6.0,-999.0,64,0.00,,,0.00,open2300 v1.10,2013-05-17 17:23:00,
2013-05-17 12:28:00,82.8,68.8,30.02,WNW,292,6.7,-999.0,63,0.00,,,0.00,open2300 v1.10,2013-05-17 17:28:00,
2013-05-17 12:33:00,82.8,68.8,30.01,West,270,4.9,-999.0,63,0.00,,,0.00,open2300 v1.10,2013-05-17 17:33:00,
2013-05-17 12:38:00,83.1,69.2,30.02,West,270,0.0,-999.0,63,0.00,,,0.00,open2300 v1.10,2013-05-17 17:38:00,
2013-05-17 12:43:00,83.1,69.2,30.01,West,270,0.9,-999.0,63,0.00,,,0.00,open2300 v1.10,2013-05-17 17:43:00,
2013-05-17 12:48:00,83.5,69.5,30.01,West,270,0.0,-999.0,63,0.00,,,0.00,open2300 v1.10,2013-05-17 17:48:00,
2013-05-17 12:54:00,84.0,69.6,30.01,WNW,292,0.0,-999.0,62,0.00,,,0.00,open2300 v1.10,2013-05-17 17:54:00,
2013-05-17 12:59:00,84.4,70.0,30.01,South,180,0.0,-999.0,62,0.00,,,0.00,open2300 v1.10,2013-05-17 17:59:00,
2013-05-17 13:08:00,84.7,69.8,30.01,South,180,6.7,-999.0,61,0.00,,,0.00,open2300 v1.10,2013-05-17 18:08:00,
2013-05-17 13:13:00,84.6,69.7,30.01,NW,315,0.0,-999.0,61,0.00,,,0.00,open2300 v1.10,2013-05-17 18:13:00,
2013-05-17 13:18:00,84.6,69.7,30.01,South,180,7.4,-999.0,61,0.00,,,0.00,open2300 v1.10,2013-05-17 18:18:00,
2013-05-17 13:23:00,84.6,69.7,30.01,South,180,0.2,-999.0,61,0.00,,,0.00,open2300 v1.10,2013-05-17 18:23:00,
2013-05-17 13:28:00,84.6,69.7,30.01,SW,225,0.4,-999.0,61,0.00,,,0.00,open2300 v1.10,2013-05-17 18:28:00,
2013-05-17 13:33:00,84.4,69.5,30.01,ESE,112,0.0,-999.0,61,0.00,,,0.00,open2300 v1.10,2013-05-17 18:33:00,
2013-05-17 13:38:00,84.4,69.5,30.01,SE,135,0.0,-999.0,61,0.00,,,0.00,open2300 v1.10,2013-05-17 18:38:00,
2013-05-17 13:48:00,84.7,70.3,30.00,SSW,202,4.2,-999.0,62,0.00,,,0.00,open2300 v1.10,2013-05-17 18:48:00,
2013-05-17 13:53:00,85.3,70.3,30.01,SE,135,0.0,-999.0,61,0.00,,,0.00,open2300 v1.10,2013-05-17 18:53:00,
2013-05-17 13:59:00,85.3,70.3,30.01,WNW,292,0.0,-999.0,61,0.00,,,0.00,open2300 v1.10,2013-05-17 18:59:00,
2013-05-17 14:08:00,86.2,70.7,30.00,West,270,7.6,-999.0,60,0.00,,,0.00,open2300 v1.10,2013-05-17 19:08:00,
2013-05-17 14:18:00,86.5,70.5,30.00,SW,225,9.2,-999.0,59,0.00,,,0.00,open2300 v1.10,2013-05-17 19:18:00,
2013-05-17 14:23:00,87.1,70.5,30.00,SE,135,0.7,-999.0,58,0.00,,,0.00,open2300 v1.10,2013-05-17 19:23:00,
2013-05-17 14:28:00,87.1,70.5,30.00,SSE,157,0.0,-999.0,58,0.00,,,0.00,open2300 v1.10,2013-05-17 19:28:00,
2013-05-17 14:33:00,87.4,70.3,30.00,SE,135,1.6,-999.0,57,0.00,,,0.00,open2300 v1.10,2013-05-17 19:33:00,
2013-05-17 14:39:00,87.6,70.5,29.99,WNW,292,5.4,-999.0,57,0.00,,,0.00,open2300 v1.10,2013-05-17 19:39:00,
2013-05-17 14:49:00,87.8,70.2,29.99,SSW,202,1.1,-999.0,56,0.00,,,0.00,open2300 v1.10,2013-05-17 19:49:00,
2013-05-17 14:54:00,88.0,70.3,29.99,South,180,0.0,-999.0,56,0.00,,,0.00,open2300 v1.10,2013-05-17 19:54:00,
2013-05-17 14:59:00,88.2,70.5,29.99,West,270,8.1,-999.0,56,0.00,,,0.00,open2300 v1.10,2013-05-17 19:59:00,
2013-05-17 15:08:00,88.3,70.1,29.98,NW,315,3.8,-999.0,55,0.00,,,0.00,open2300 v1.10,2013-05-17 20:08:00,
2013-05-17 15:13:00,88.5,70.8,29.98,NNW,337,0.0,-999.0,56,0.00,,,0.00,open2300 v1.10,2013-05-17 20:13:00,
2013-05-17 15:18:00,88.5,70.8,29.98,West,270,5.8,-999.0,56,0.00,,,0.00,open2300 v1.10,2013-05-17 20:18:00,
2013-05-17 15:23:00,88.5,70.8,29.98,West,270,4.9,-999.0,56,0.00,,,0.00,open2300 v1.10,2013-05-17 20:23:00,
2013-05-17 15:28:00,88.3,70.1,29.98,SSE,157,2.7,-999.0,55,0.00,,,0.00,open2300 v1.10,2013-05-17 20:28:00,
2013-05-17 15:33:00,88.3,70.1,29.97,WNW,292,8.3,-999.0,55,0.00,,,0.00,open2300 v1.10,2013-05-17 20:33:00,
2013-05-17 15:38:00,88.5,70.3,29.97,WSW,247,8.1,-999.0,55,0.00,,,0.00,open2300 v1.10,2013-05-17 20:38:00,
2013-05-17 15:48:00,88.5,70.3,29.97,ESE,112,1.3,-999.0,55,0.00,,,0.00,open2300 v1.10,2013-05-17 20:48:00,
2013-05-17 15:54:00,88.3,70.1,29.97,South,180,0.4,-999.0,55,0.00,,,0.00,open2300 v1.10,2013-05-17 20:54:00,
2013-05-17 15:59:00,88.2,69.9,29.97,West,270,4.9,-999.0,55,0.00,,,0.00,open2300 v1.10,2013-05-17 20:59:00,
2013-05-17 16:08:00,88.5,70.3,29.96,NE,45,0.0,-999.0,55,0.00,,,0.00,open2300 v1.10,2013-05-17 21:08:00,
2013-05-17 16:13:00,88.5,70.8,29.96,SSW,202,6.0,-999.0,56,0.00,,,0.00,open2300 v1.10,2013-05-17 21:13:00,
2013-05-17 16:23:00,88.5,70.8,29.96,West,270,5.4,-999.0,56,0.00,,,0.00,open2300 v1.10,2013-05-17 21:23:00,
2013-05-17 16:28:00,88.7,71.0,29.96,SW,225,0.0,-999.0,56,0.00,,,0.00,open2300 v1.10,2013-05-17 21:28:00,
2013-05-17 16:33:00,88.7,71.0,29.95,West,270,0.7,-999.0,56,0.00,,,0.00,open2300 v1.10,2013-05-17 21:33:00,
2013-05-17 16:38:00,88.7,71.0,29.95,WNW,292,8.5,-999.0,56,0.00,,,0.00,open2300 v1.10,2013-05-17 21:38:00,
2013-05-17 16:44:00,88.3,70.7,29.95,SSW,202,6.3,-999.0,56,0.00,,,0.00,open2300 v1.10,2013-05-17 21:44:00,
2013-05-17 16:54:00,88.0,70.3,29.95,South,180,8.7,-999.0,56,0.00,,,0.00,open2300 v1.10,2013-05-17 21:54:00,
2013-05-17 16:59:00,88.0,70.3,29.95,NNW,337,0.7,-999.0,56,0.00,,,0.00,open2300 v1.10,2013-05-17 21:59:00,
2013-05-17 17:08:00,87.6,70.5,29.95,South,180,2.2,-999.0,57,0.00,,,0.00,open2300 v1.10,2013-05-17 22:08:00,
2013-05-17 17:13:00,87.6,70.5,29.94,West,270,9.8,-999.0,57,0.00,,,0.00,open2300 v1.10,2013-05-17 22:13:00,
2013-05-17 17:18:00,87.6,70.5,29.95,ESE,112,0.0,-999.0,57,0.00,,,0.00,open2300 v1.10,2013-05-17 22:18:00,
2013-05-17 17:23:00,87.1,70.0,29.95,SW,225,6.5,-999.0,57,0.00,,,0.00,open2300 v1.10,2013-05-17 22:23:00,
2013-05-17 17:28:00,87.1,70.0,29.95,SW,225,6.0,-999.0,57,0.00,,,0.00,open2300 v1.10,2013-05-17 22:28:00,
2013-05-17 17:33:00,87.1,70.5,29.95,NW,315,6.0,-999.0,58,0.00,,,0.00,open2300 v1.10,2013-05-17 22:33:00,
2013-05-17 17:38:00,87.1,70.5,29.95,NW,315,2.2,-999.0,58,0.00,,,0.00,open2300 v1.10,2013-05-17 22:38:00,
2013-05-17 17:43:00,87.1,70.5,29.95,West,270,0.0,-999.0,58,0.00,,,0.00,open2300 v1.10,2013-05-17 22:43:00,
2013-05-17 17:48:00,87.1,70.5,29.95,WSW,247,5.1,-999.0,58,0.00,,,0.00,open2300 v1.10,2013-05-17 22:48:00,
2013-05-17 17:54:00,87.1,70.5,29.95,SW,225,0.0,-999.0,58,0.00,,,0.00,open2300 v1.10,2013-05-17 22:54:00,
2013-05-17 17:59:00,87.1,70.5,29.96,NW,315,0.0,-999.0,58,0.00,,,0.00,open2300 v1.10,2013-05-17 22:59:00,
2013-05-17 18:08:00,86.7,70.7,29.96,SSW,202,11.2,-999.0,59,0.00,,,0.00,open2300 v1.10,2013-05-17 23:08:00,
2013-05-17 18:18:00,86.5,70.5,29.96,West,270,5.6,-999.0,59,0.00,,,0.00,open2300 v1.10,2013-05-17 23:18:00,
2013-05-17 18:23:00,86.4,70.3,29.96,WNW,292,0.0,-999.0,59,0.00,,,0.00,open2300 v1.10,2013-05-17 23:23:00,
2013-05-17 18:28:00,86.2,70.2,29.96,WSW,247,0.0,-999.0,59,0.00,,,0.00,open2300 v1.10,2013-05-17 23:28:00,
2013-05-17 18:33:00,86.2,70.7,29.96,South,180,0.0,-999.0,60,0.00,,,0.00,open2300 v1.10,2013-05-17 23:33:00,
2013-05-17 18:38:00,86.2,70.7,29.96,WNW,292,5.1,-999.0,60,0.00,,,0.00,open2300 v1.10,2013-05-17 23:38:00,
2013-05-17 18:43:00,86.0,70.5,29.96,SW,225,0.4,-999.0,60,0.00,,,0.00,open2300 v1.10,2013-05-17 23:43:00,
2013-05-17 18:48:00,85.8,70.4,29.95,South,180,0.0,-999.0,60,0.00,,,0.00,open2300 v1.10,2013-05-17 23:48:00,
2013-05-17 18:54:00,85.6,70.7,29.96,East,90,0.0,-999.0,61,0.00,,,0.00,open2300 v1.10,2013-05-17 23:54:00,
2013-05-17 18:59:00,85.3,70.3,29.96,SE,135,0.0,-999.0,61,0.00,,,0.00,open2300 v1.10,2013-05-17 23:59:00,
2013-05-17 19:08:00,84.7,70.3,29.96,SW,225,3.8,-999.0,62,0.00,,,0.00,open2300 v1.10,2013-05-18 00:08:00,
2013-05-17 19:13:00,84.6,70.1,29.96,SSW,202,0.0,-999.0,62,0.00,,,0.00,open2300 v1.10,2013-05-18 00:13:00,
2013-05-17 19:18:00,84.4,70.0,29.96,WNW,292,0.0,-999.0,62,0.00,,,0.00,open2300 v1.10,2013-05-18 00:18:00,
2013-05-17 19:23:00,84.0,70.1,29.96,SSW,202,0.0,-999.0,63,0.00,,,0.00,open2300 v1.10,2013-05-18 00:23:00,
2013-05-17 19:28:00,83.8,69.9,29.97,WSW,247,0.0,-999.0,63,0.00,,,0.00,open2300 v1.10,2013-05-18 00:28:00,
2013-05-17 19:33:00,83.5,70.0,29.97,WNW,292,0.0,-999.0,64,0.00,,,0.00,open2300 v1.10,2013-05-18 00:33:00,
2013-05-17 19:38:00,83.1,69.2,29.96,SW,225,0.0,-999.0,63,0.00,,,0.00,open2300 v1.10,2013-05-18 00:38:00,
2013-05-17 19:43:00,82.9,69.4,29.97,South,180,0.0,-999.0,64,0.00,,,0.00,open2300 v1.10,2013-05-18 00:43:00,
2013-05-17 19:48:00,82.8,69.3,29.97,SSW,202,0.0,-999.0,64,0.00,,,0.00,open2300 v1.10,2013-05-18 00:48:00,
2013-05-17 19:53:00,82.2,69.2,29.97,SSW,202,0.0,-999.0,65,0.00,,,0.00,open2300 v1.10,2013-05-18 00:53:00,
2013-05-17 19:59:00,82.0,69.0,29.97,South,180,0.0,-999.0,65,0.00,,,0.00,open2300 v1.10,2013-05-18 00:59:00,
2013-05-17 20:08:00,81.3,69.3,29.97,South,180,0.0,-999.0,67,0.00,,,0.00,open2300 v1.10,2013-05-18 01:08:00,
2013-05-17 20:13:00,81.0,69.4,29.97,South,180,0.0,-999.0,68,0.00,,,0.00,open2300 v1.10,2013-05-18 01:13:00,
2013-05-17 20:18:00,80.8,69.2,29.97,South,180,0.0,-999.0,68,0.00,,,0.00,open2300 v1.10,2013-05-18 01:18:00,
2013-05-17 20:28:00,80.2,69.2,29.97,SSW,202,7.4,-999.0,69,0.00,,,0.00,open2300 v1.10,2013-05-18 01:28:00,
2013-05-17 20:33:00,79.9,68.8,29.97,SW,225,1.3,-999.0,69,0.00,,,0.00,open2300 v1.10,2013-05-18 01:33:00,
2013-05-17 20:38:00,79.5,68.9,29.97,SE,135,0.0,-999.0,70,0.00,,,0.00,open2300 v1.10,2013-05-18 01:38:00,
2013-05-17 20:43:00,79.5,68.9,29.97,South,180,0.0,-999.0,70,0.00,,,0.00,open2300 v1.10,2013-05-18 01:43:00,
2013-05-17 20:49:00,79.2,68.5,29.98,South,180,0.0,-999.0,70,0.00,,,0.00,open2300 v1.10,2013-05-18 01:49:00,
2013-05-17 20:59:00,78.6,68.4,29.98,SSE,157,0.0,-999.0,71,0.00,,,0.00,open2300 v1.10,2013-05-18 01:59:00,
2013-05-17 21:08:00,78.6,68.4,29.98,SSE,157,0.0,-999.0,71,0.00,,,0.00,open2300 v1.10,2013-05-18 02:08:00,
2013-05-17 21:13:00,78.4,68.6,29.99,South,180,7.6,-999.0,72,0.00,,,0.00,open2300 v1.10,2013-05-18 02:13:00,
2013-05-17 21:18:00,78.3,68.5,29.99,SSE,157,5.4,-999.0,72,0.00,,,0.00,open2300 v1.10,2013-05-18 02:18:00,
2013-05-17 21:23:00,77.9,68.5,29.99,South,180,5.8,-999.0,73,0.00,,,0.00,open2300 v1.10,2013-05-18 02:23:00,
2013-05-17 21:28:00,77.7,68.4,29.99,South,180,2.7,-999.0,73,0.00,,,0.00,open2300 v1.10,2013-05-18 02:28:00,
2013-05-17 21:33:00,77.5,68.2,29.99,SW,225,0.0,-999.0,73,0.00,,,0.00,open2300 v1.10,2013-05-18 02:33:00,
2013-05-17 21:39:00,77.5,68.2,29.99,SSW,202,0.0,-999.0,73,0.00,,,0.00,open2300 v1.10,2013-05-18 02:39:00,
2013-05-17 21:48:00,77.2,68.2,29.99,SE,135,2.5,-999.0,74,0.00,,,0.00,open2300 v1.10,2013-05-18 02:48:00,
2013-05-17 21:54:00,76.8,67.9,30.00,South,180,3.4,-999.0,74,0.00,,,0.00,open2300 v1.10,2013-05-18 02:54:00,
2013-05-17 21:59:00,76.8,67.9,30.00,South,180,0.0,-999.0,74,0.00,,,0.00,open2300 v1.10,2013-05-18 02:59:00,
2013-05-17 22:08:00,76.6,67.7,30.00,West,270,0.0,-999.0,74,0.00,,,0.00,open2300 v1.10,2013-05-18 03:08:00,
2013-05-17 22:13:00,76.6,67.7,30.01,South,180,0.0,-999.0,74,0.00,,,0.00,open2300 v1.10,2013-05-18 03:13:00,
2013-05-17 22:18:00,76.5,67.6,30.01,SW,225,0.0,-999.0,74,0.00,,,0.00,open2300 v1.10,2013-05-18 03:18:00,
2013-05-17 22:23:00,76.3,67.8,30.01,SW,225,5.1,-999.0,75,0.00,,,0.00,open2300 v1.10,2013-05-18 03:23:00,
2013-05-17 22:28:00,76.3,67.8,30.01,South,180,0.0,-999.0,75,0.00,,,0.00,open2300 v1.10,2013-05-18 03:28:00,
2013-05-17 22:33:00,76.1,67.6,30.01,SSW,202,2.7,-999.0,75,0.00,,,0.00,open2300 v1.10,2013-05-18 03:33:00,
2013-05-17 22:39:00,75.9,67.4,30.01,SSW,202,0.0,-999.0,75,0.00,,,0.00,open2300 v1.10,2013-05-18 03:39:00,
2013-05-17 22:48:00,75.9,67.4,30.01,SW,225,0.0,-999.0,75,0.00,,,0.00,open2300 v1.10,2013-05-18 03:48:00,
2013-05-17 22:54:00,75.9,67.4,30.01,SSW,202,0.0,-999.0,75,0.00,,,0.00,open2300 v1.10,2013-05-18 03:54:00,
2013-05-17 22:59:00,75.7,67.2,30.01,WSW,247,0.0,-999.0,75,0.00,,,0.00,open2300 v1.10,2013-05-18 03:59:00,
2013-05-17 23:03:00,75.7,67.2,30.01,SW,225,0.0,-999.0,75,0.00,,,0.00,open2300 v1.10,2013-05-18 04:03:00,
2013-05-17 23:08:00,75.6,67.5,30.01,SW,225,0.9,-999.0,76,0.00,,,0.00,open2300 v1.10,2013-05-18 04:08:00,
2013-05-17 23:13:00,75.6,67.5,30.01,South,180,0.0,-999.0,76,0.00,,,0.00,open2300 v1.10,2013-05-18 04:13:00,
2013-05-17 23:18:00,75.6,67.5,30.01,SW,225,0.0,-999.0,76,0.00,,,0.00,open2300 v1.10,2013-05-18 04:18:00,
2013-05-17 23:23:00,75.4,67.3,30.01,SSW,202,0.7,-999.0,76,0.00,,,0.00,open2300 v1.10,2013-05-18 04:23:00,
2013-05-17 23:28:00,75.4,67.3,30.01,SSW,202,0.0,-999.0,76,0.00,,,0.00,open2300 v1.10,2013-05-18 04:28:00,
2013-05-17 23:33:00,75.4,67.3,30.01,SSE,157,0.0,-999.0,76,0.00,,,0.00,open2300 v1.10,2013-05-18 04:33:00,
2013-05-17 23:38:00,75.4,67.3,30.01,SSW,202,0.0,-999.0,76,0.00,,,0.00,open2300 v1.10,2013-05-18 04:38:00,
2013-05-17 23:43:00,75.4,67.3,30.01,SSW,202,0.0,-999.0,76,0.00,,,0.00,open2300 v1.10,2013-05-18 04:43:00,
2013-05-17 23:48:00,75.4,67.3,30.01,WSW,247,0.0,-999.0,76,0.00,,,0.00,open2300 v1.10,2013-05-18 04:48:00,
2013-05-17 23:54:00,75.6,67.5,30.01,WSW,247,0.0,-999.0,76,0.00,,,0.00,open2300 v1.10,2013-05-18 04:54:00,
2013-05-17 23:59:00,75.6,67.5,30.01,SSW,202,5.8,-999.0,76,0.00,,,0.00,open2300 v1.10,2013-05-18 04:59:00,